When you browse on this site, cookies collect data to enhance your experience and personalize the content and advertising you see.
Visit our Privacy Policy to learn more. By continuing to use the site, you agree to this use of cookies and data.
  • In United Kingdom
  • List of Countries
  • For 7 days
  • Water Temperature
  • Satellite Maps
  • Weather Map
  • Weather Widgets
  • user-avatar
    Login

    Hourly Weather Dumfries

    Today, 22 February, Friday

    Time Temperature Precipitation Wind Pressure Humidity
    00:00 +8°C° 0 mm 2 mps 765 mmHg 91%
    01:00 +8°C° 0 mm 2 mps 765 mmHg 91%
    02:00 +8°C° 0 mm 2 mps 765 mmHg 90%
    03:00 +8°C° 0 mm 2 mps 765 mmHg 89%
    04:00 +8°C° 0 mm 3 mps 765 mmHg 86%
    05:00 +9°C° 0 mm 3 mps 765 mmHg 83%
    06:00 +8°C° 0 mm 4 mps 766 mmHg 80%
    07:00 +8°C° 0 mm 4 mps 766 mmHg 79%
    08:00 +10°C° 0 mm 4 mps 766 mmHg 77%
    09:00 +10°C° 0 mm 4 mps 766 mmHg 75%
    10:00 +10°C° 0 mm 5 mps 767 mmHg 71%
    11:00 +13°C° 0 mm 6 mps 767 mmHg 66%
    12:00 +14°C° 0 mm 6 mps 767 mmHg 61%
    13:00 +14°C° 0 mm 6 mps 767 mmHg 60%
    14:00 +14°C° 0 mm 5 mps 767 mmHg 59%
    15:00 +14°C° 0 mm 4 mps 767 mmHg 58%
    16:00 +13°C° 0 mm 4 mps 767 mmHg 60%
    17:00 +12°C° 0 mm 3 mps 767 mmHg 62%
    18:00 +10°C° 0 mm 2 mps 767 mmHg 65%
    19:00 +10°C° 0 mm 2 mps 767 mmHg 68%
    20:00 +10°C° 0 mm 2 mps 767 mmHg 71%
    21:00 +9°C° 0 mm 2 mps 767 mmHg 75%
    22:00 +9°C° 0 mm 2 mps 767 mmHg 77%
    23:00 +9°C° 0 mm 2 mps 767 mmHg 79%

    Tomorrow, 23 February, Saturday

    Time Temperature Precipitation Wind Pressure Humidity
    00:00 +9°C° 0 mm 2 mps 766 mmHg 81%
    01:00 +9°C° 0 mm 2 mps 766 mmHg 80%
    02:00 +8°C° 0 mm 2 mps 766 mmHg 79%
    03:00 +8°C° 0 mm 2 mps 766 mmHg 78%
    04:00 +8°C° 0 mm 2 mps 765 mmHg 77%
    05:00 +8°C° 0 mm 2 mps 765 mmHg 76%
    06:00 +8°C° 0 mm 3 mps 765 mmHg 75%
    07:00 +8°C° 0 mm 3 mps 765 mmHg 73%
    08:00 +9°C° 0 mm 3 mps 765 mmHg 72%
    09:00 +9°C° 0 mm 3 mps 765 mmHg 70%
    10:00 +10°C° 0 mm 4 mps 765 mmHg 68%
    11:00 +10°C° 0 mm 5 mps 765 mmHg 66%
    12:00 +11°C° 0 mm 6 mps 765 mmHg 64%
    13:00 +11°C° 0 mm 6 mps 766 mmHg 69%
    14:00 +12°C° 0 mm 5 mps 766 mmHg 73%
    15:00 +12°C° 0 mm 5 mps 766 mmHg 78%
    16:00 +11°C° 0.1 mm 4 mps 767 mmHg 82%
    17:00 +11°C° 0.1 mm 3 mps 767 mmHg 87%
    18:00 +10°C° 0.1 mm 3 mps 768 mmHg 91%
    19:00 +10°C° 0 mm 2 mps 768 mmHg 93%
    20:00 +9°C° 0 mm 2 mps 769 mmHg 94%
    21:00 +10°C° 0 mm 1 mps 769 mmHg 96%
    22:00 +10°C° 0 mm 1 mps 770 mmHg 95%
    23:00 +10°C° 0 mm 1 mps 770 mmHg 95%

    Day after tomorrow, 24 February, Sunday

    Time Temperature Precipitation Wind Pressure Humidity
    00:00 +9°C° 0 mm 0 mps 770 mmHg 95%
    01:00 +8°C° 0 mm 0 mps 770 mmHg 95%
    02:00 +8°C° 0 mm 0 mps 771 mmHg 95%
    03:00 +7°C° 0 mm 0 mps 771 mmHg 95%
    04:00 +8°C° 0 mm 1 mps 771 mmHg 95%
    05:00 +8°C° 0 mm 1 mps 770 mmHg 95%
    06:00 +7°C° 0 mm 2 mps 770 mmHg 95%
    07:00 +7°C° 0 mm 2 mps 770 mmHg 95%
    08:00 +8°C° 0 mm 1 mps 771 mmHg 94%
    09:00 +9°C° 0 mm 1 mps 771 mmHg 94%
    10:00 +10°C° 0 mm 1 mps 771 mmHg 89%
    11:00 +11°C° 0 mm 1 mps 770 mmHg 84%
    12:00 +13°C° 0 mm 1 mps 770 mmHg 80%
    13:00 +13°C° 0 mm 2 mps 770 mmHg 79%
    14:00 +14°C° 0 mm 2 mps 770 mmHg 79%
    15:00 +14°C° 0 mm 2 mps 770 mmHg 78%
    16:00 +13°C° 0 mm 2 mps 770 mmHg 82%
    17:00 +12°C° 0 mm 2 mps 770 mmHg 86%
    18:00 +10°C° 0 mm 2 mps 770 mmHg 90%
    19:00 +10°C° 0 mm 1 mps 770 mmHg 91%
    20:00 +10°C° 0 mm 1 mps 770 mmHg 93%
    21:00 +9°C° 0 mm 1 mps 771 mmHg 94%
    22:00 +8°C° 0 mm 2 mps 771 mmHg 94%
    23:00 +8°C° 0 mm 2 mps 771 mmHg 94%

    25 February, Monday

    Time Temperature Precipitation Wind Pressure Humidity
    00:00 +9°C° 0 mm 2 mps 771 mmHg 94%
    01:00 +9°C° 0 mm 2 mps 771 mmHg 94%
    02:00 +9°C° 0 mm 2 mps 771 mmHg 94%
    03:00 +9°C° 0 mm 2 mps 771 mmHg 95%
    04:00 +9°C° 0 mm 2 mps 771 mmHg 94%
    05:00 +9°C° 0 mm 2 mps 770 mmHg 93%
    06:00 +9°C° 0 mm 2 mps 770 mmHg 93%
    07:00 +10°C° 0 mm 2 mps 771 mmHg 91%
    08:00 +10°C° 0 mm 2 mps 771 mmHg 90%
    09:00 +10°C° 0 mm 2 mps 772 mmHg 89%
    10:00 +11°C° 0 mm 3 mps 772 mmHg 85%
    11:00 +13°C° 0 mm 3 mps 772 mmHg 81%
    12:00 +14°C° 0 mm 4 mps 772 mmHg 76%
    13:00 +14°C° 0 mm 4 mps 772 mmHg 75%
    14:00 +16°C° 0 mm 3 mps 772 mmHg 74%
    15:00 +16°C° 0 mm 3 mps 772 mmHg 73%
    16:00 +14°C° 0 mm 3 mps 772 mmHg 78%
    17:00 +13°C° 0 mm 2 mps 772 mmHg 83%
    18:00 +12°C° 0 mm 1 mps 772 mmHg 89%
    19:00 +12°C° 0 mm 1 mps 772 mmHg 89%
    20:00 +12°C° 0 mm 1 mps 772 mmHg 89%
    21:00 +11°C° 0 mm 1 mps 772 mmHg 89%
    22:00 +11°C° 0 mm 1 mps 772 mmHg 89%
    23:00 +10°C° 0 mm 1 mps 772 mmHg 88%

    26 February, Tuesday

    Time Temperature Precipitation Wind Pressure Humidity
    00:00 +10°C° 0 mm 1 mps 772 mmHg 88%
    01:00 +10°C° 0 mm 1 mps 771 mmHg 88%
    02:00 +9°C° 0 mm 1 mps 771 mmHg 88%
    03:00 +9°C° 0 mm 1 mps 771 mmHg 88%
    04:00 +9°C° 0 mm 1 mps 771 mmHg 89%
    05:00 +8°C° 0 mm 1 mps 771 mmHg 89%
    06:00 +8°C° 0 mm 1 mps 770 mmHg 90%
    07:00 +8°C° 0 mm 1 mps 770 mmHg 88%
    08:00 +9°C° 0 mm 1 mps 771 mmHg 87%
    09:00 +9°C° 0 mm 1 mps 771 mmHg 86%
    10:00 +11°C° 0 mm 1 mps 771 mmHg 79%
    11:00 +13°C° 0 mm 1 mps 770 mmHg 72%
    12:00 +14°C° 0 mm 1 mps 770 mmHg 65%
    13:00 +15°C° 0 mm 1 mps 770 mmHg 62%
    14:00 +15°C° 0 mm 1 mps 770 mmHg 60%
    15:00 +16°C° 0 mm 1 mps 769 mmHg 57%
    16:00 +14°C° 0 mm 1 mps 769 mmHg 63%
    17:00 +12°C° 0 mm 1 mps 769 mmHg 69%
    18:00 +10°C° 0 mm 0 mps 768 mmHg 75%
    19:00 +9°C° 0 mm 0 mps 768 mmHg 76%
    20:00 +9°C° 0 mm 0 mps 768 mmHg 77%
    21:00 +8°C° 0 mm 0 mps 768 mmHg 78%
    22:00 +8°C° 0 mm 0 mps 767 mmHg 78%
    23:00 +7°C° 0 mm 0 mps 767 mmHg 78%

    27 February, Wednesday

    Time Temperature Precipitation Wind Pressure Humidity
    00:00 +7°C° 0 mm 0 mps 766 mmHg 79%
    01:00 +7°C° 0 mm 0 mps 766 mmHg 79%
    02:00 +7°C° 0 mm 0 mps 765 mmHg 80%
    03:00 +7°C° 0 mm 1 mps 765 mmHg 80%
    04:00 +7°C° 0 mm 1 mps 765 mmHg 82%
    05:00 +7°C° 0 mm 1 mps 764 mmHg 83%
    06:00 +6°C° 0 mm 2 mps 764 mmHg 85%
    07:00 +6°C° 0 mm 2 mps 764 mmHg 85%
    08:00 +7°C° 0 mm 2 mps 764 mmHg 86%
    09:00 +7°C° 0 mm 2 mps 764 mmHg 86%
    10:00 +9°C° 0 mm 2 mps 764 mmHg 82%
    11:00 +10°C° 0 mm 3 mps 764 mmHg 78%
    12:00 +12°C° 0 mm 3 mps 764 mmHg 73%
    13:00 +12°C° 0 mm 3 mps 763 mmHg 72%
    14:00 +12°C° 0 mm 3 mps 763 mmHg 71%
    15:00 +13°C° 0 mm 3 mps 762 mmHg 69%
    16:00 +11°C° 0 mm 3 mps 762 mmHg 75%
    17:00 +10°C° 0 mm 2 mps 762 mmHg 82%
    18:00 +8°C° 0 mm 2 mps 762 mmHg 88%
    19:00 +8°C° 0 mm 2 mps 761 mmHg 90%
    20:00 +8°C° 0 mm 2 mps 761 mmHg 92%
    21:00 +7°C° 0 mm 2 mps 761 mmHg 94%
    22:00 +7°C° 0 mm 2 mps 761 mmHg 94%
    23:00 +7°C° 0 mm 2 mps 761 mmHg 95%
    Show more